TimeAKDT,TemperatureF,Dew PointF,Humidity,Sea Level PressureIn,VisibilityMPH,Wind Direction,Wind SpeedMPH,Gust SpeedMPH,PrecipitationIn,Events,Conditions,WindDirDegrees,DateUTC
12:58 AM,-9999,-9999,N/A,29.78,10.0,NNW,5.8,-,N/A,,Overcast,340,2013-09-19 08:58:00
1:58 AM,-9999,-9999,N/A,29.77,10.0,NNW,8.1,-,N/A,,Mostly Cloudy,330,2013-09-19 09:58:00
2:58 AM,-9999,-9999,N/A,29.77,10.0,NNW,6.9,-,N/A,,Overcast,330,2013-09-19 10:58:00
3:58 AM,-9999,-9999,N/A,29.77,10.0,NW,6.9,-,N/A,,Overcast,310,2013-09-19 11:58:00
4:58 AM,-9999,-9999,N/A,29.77,10.0,NNW,6.9,-,N/A,,Overcast,340,2013-09-19 12:58:00
5:58 AM,-9999,-9999,N/A,29.76,10.0,NW,8.1,-,N/A,,Overcast,310,2013-09-19 13:58:00
6:58 AM,-9999,-9999,N/A,29.75,10.0,NNW,5.8,-,N/A,,Overcast,340,2013-09-19 14:58:00
7:58 AM,-9999,-9999,N/A,29.75,10.0,NW,8.1,-,N/A,,Overcast,320,2013-09-19 15:58:00
8:58 AM,-9999,-9999,N/A,29.75,10.0,North,5.8,-,N/A,,Overcast,350,2013-09-19 16:58:00
9:58 AM,-9999,-9999,N/A,29.76,10.0,NW,6.9,-,N/A,,Overcast,320,2013-09-19 17:58:00
10:58 AM,-9999,-9999,N/A,29.76,0.5,NW,4.6,-,0.00,Rain,Light Rain,320,2013-09-19 18:58:00
11:02 AM,-9999,-9999,N/A,29.76,2.0,NNW,6.9,-,0.00,,Mostly Cloudy,330,2013-09-19 19:02:00
11:08 AM,-9999,-9999,N/A,29.76,10.0,NNW,4.6,-,0.00,,Mostly Cloudy,330,2013-09-19 19:08:00
11:58 AM,-9999,-9999,N/A,29.75,10.0,NW,10.4,-,0.00,,Overcast,320,2013-09-19 19:58:00
12:58 PM,-9999,-9999,N/A,29.75,10.0,Variable,5.8,-,N/A,,Overcast,0,2013-09-19 20:58:00
1:58 PM,-9999,-9999,N/A,29.75,10.0,NNW,6.9,-,N/A,,Overcast,330,2013-09-19 21:58:00
2:58 PM,-9999,-9999,N/A,29.75,10.0,NW,10.4,-,N/A,,Overcast,320,2013-09-19 22:58:00
3:58 PM,-9999,-9999,N/A,29.74,10.0,NNW,5.8,-,N/A,,Overcast,340,2013-09-19 23:58:00
4:58 PM,-9999,-9999,N/A,29.74,10.0,Variable,5.8,-,N/A,,Overcast,0,2013-09-20 00:58:00
5:58 PM,-9999,-9999,N/A,29.73,10.0,NNW,13.8,-,N/A,,Overcast,330,2013-09-20 01:58:00
6:58 PM,-9999,-9999,N/A,29.72,10.0,NW,9.2,-,N/A,,Overcast,320,2013-09-20 02:58:00
7:58 PM,-9999,-9999,N/A,29.71,10.0,NNW,6.9,-,N/A,,Overcast,330,2013-09-20 03:58:00
8:58 PM,-9999,-9999,N/A,29.70,10.0,NNW,3.5,-,N/A,,Overcast,330,2013-09-20 04:58:00
9:58 PM,-9999,-9999,N/A,29.69,10.0,NNW,3.5,-,N/A,,Overcast,330,2013-09-20 05:58:00
10:58 PM,-9999,-9999,N/A,29.68,10.0,North,4.6,-,N/A,,Overcast,350,2013-09-20 06:58:00
11:58 PM,-9999,-9999,N/A,29.67,10.0,North,3.5,-,N/A,,Overcast,350,2013-09-20 07:58:00